Probability
0 0 0 0 0 0 0 0 0 0 6 13 10 10 13 23 29 29 39 48 42 45 52 45 39 39 35 35 39 39 35 29 32 32 29 29 29 29 32 35 29 39 42 42
0 0 0 0 0 0 0 0 0 3 6 10 10 13 19 26 26 32 29 35 32 39 39 32 35 39 35 39 39 39 35 32 29 29 32 35 35 32 32 35 32 32 35 39
0 0 0 0 0 0 0 0 0 3 3 13 10 10 16 26 23 32 32 35 32 29 32 35 35 39 39 29 26 35 35 32 32 29 32 32 29 32 32 35 32 29 29 32
0 0 0 0 0 0 0 0 3 3 6 6 13 10 16 19 19 29 32 35 29 29 29 26 26 32 26 26 29 29 26 23 23 29 29 29 29 29 35 26 29 29 29 26
0 0 0 0 3 3 3 3 3 6 6 13 10 13 10 13 19 26 29 29 32 29 26 23 29 29 26 23 26 26 26 23 23 23 26 29 29 29 23 26 26 23 19 29
0 0 0 3 3 3 3 3 10 6 10 13 13 13 10 16 19 23 23 26 23 23 26 26 26 29 32 26 26 29 23 26 23 23 23 26 23 29 23 26 19 19 23 19
0 0 0 3 3 3 3 3 6 10 13 13 13 6 16 13 19 19 23 23 26 23 23 26 29 29 29 29 29 26 23 26 26 23 26 26 23 26 23 23 23 19 23 16
0 0 0 3 3 3 3 10 6 10 10 13 13 13 19 19 23 19 19 19 23 23 26 23 29 32 32 26 29 29 29 29 26 16 19 23 23 23 23 19 19 19 23 16
6 3 3 0 0 0 6 6 13 16 6 6 10 10 19 16 19 19 19 23 16 19 23 26 26 26 23 23 26 26 26 23 23 26 23 19 23 19 19 19 19 19 19 16
6 3 0 0 0 3 3 6 6 6 6 13 10 16 16 16 19 19 16 19 16 16 16 23 23 23 23 23 23 19 23 19 19 19 19 16 19 16 16 16 19 19 16 13
3 3 3 0 3 3 3 3 3 3 6 6 6 13 16 16 16 16 13 13 19 19 16 16 26 23 23 23 23 23 23 16 13 10 10 16 13 16 10 16 10 19 16 16
3 6 3 3 3 3 3 0 3 3 3 6 6 13 13 16 19 16 16 16 19 16 19 23 23 19 19 19 23 16 13 13 10 10 10 6 6 10 3 6 3 3 0 3
3 0 3 3 0 3 3 0 3 6 6 3 10 13 16 13 19 16 16 13 16 16 16 16 16 16 16 19 19 16 19 10 13 10 6 6 6 10 10 6 0 0 0 0
3 3 6 3 3 3 3 3 3 3 3 3 6 10 16 19 16 19 13 16 13 16 16 19 16 13 16 13 16 16 13 10 10 13 6 6 6 6 6 6 6 6 0 0
3 3 3 3 3 3 3 3 3 3 3 6 6 10 19 19 19 19 19 13 13 13 16 19 19 13 10 10 10 10 13 16 16 10 6 6 6 6 3 3 3 6 6 0
0 0 3 3 3 3 3 3 6 6 6 6 6 10 10 19 19 13 13 10 10 10 10 19 19 16 10 10 6 10 13 6 10 10 10 6 6 6 6 3 6 6 6 3
3 3 3 3 3 3 3 3 6 6 6 6 6 10 13 19 13 16 10 10 10 10 10 13 16 16 10 10 10 10 6 6 3 10 10 6 6 6 6 10 10 3 3 0
0 3 3 3 6 3 3 3 6 6 6 6 6 10 10 13 13 16 13 10 10 10 10 6 6 13 10 10 13 10 10 13 6 13 13 6 6 6 6 10 6 6 3 3
0 0 3 3 3 3 3 3 6 6 6 6 6 10 13 10 16 13 13 13 10 6 6 3 0 6 10 10 10 10 10 6 6 6 10 10 10 6 6 10 6 6 3 3
0 3 3 3 3 3 3 10 13 3 3 3 3 6 13 13 13 10 13 13 10 10 10 3 3 6 6 10 6 6 3 6 6 6 10 10 13 13 10 10 6 3 3 3
3 3 3 3 3 3 6 10 10 6 6 6 10 10 13 13 10 10 10 10 10 3 3 3 3 3 6 3 0 3 3 6 6 6 6 10 10 10 10 6 6 6 3 3
3 3 3 3 3 6 10 6 6 3 3 6 6 6 10 10 10 10 10 13 6 3 3 3 3 3 3 0 3 3 6 6 10 6 6 10 10 10 10 6 6 6 6 6
3 3 6 6 6 10 6 6 6 3 3 3 3 6 6 6 6 6 10 6 10 3 3 3 3 0 0 0 0 3 3 3 3 3 10 10 6 6 6 6 6 6 6 6
6 6 6 10 6 6 6 6 3 3 3 3 3 3 3 3 3 6 10 0 0 0 3 3 0 0 0 3 0 0 3 0 0 0 0 3 6 3 3 3 3 0 0 0
6 6 6 6 6 6 3 0 3 3 0 3 3 3 3 3 6 6 3 3 0 0 0 0 0 0 0 3 0 0 3 3 3 0 0 0 0 0 0 0 0 0 0 0
3 3 3 3 3 6 3 3 0 0 0 0 0 0 3 3 3 3 3 3 0 0 0 0 0 0 0 0 0 0 0 0 0 0 3 3 0 0 3 3 3 3 0 0
3 3 6 3 6 0 0 0 0 0 0 0 0 0 0 0 0 0 3 3 3 0 0 0 0 0 0 0 0 0 0 0 3 3 0 0 0 0 0 3 3 0 0 0
Height
5890 5890 5891 5891 5891 5892 5892 5893 5894 5894 5893 5892 5891 5891 5890 5889 5888 5887 5886 5885 5884 5882 5881 5880 5879 5877 5875 5874 5872 5870 5869 5867 5865 5863 5861 5860 5858 5856 5854 5852 5850 5849 5846 5844
5883 5884 5884 5885 5885 5886 5886 5886 5887 5886 5886 5886 5885 5884 5884 5883 5882 5881 5880 5879 5878 5876 5875 5874 5872 5871 5869 5867 5866 5864 5862 5860 5858 5856 5855 5853 5851 5849 5847 5845 5843 5841 5839 5836
5877 5877 5878 5879 5879 5879 5880 5880 5880 5880 5880 5879 5878 5877 5877 5876 5875 5874 5873 5872 5871 5870 5869 5867 5865 5864 5862 5860 5858 5857 5855 5853 5851 5849 5847 5846 5844 5841 5839 5837 5835 5833 5831 5828
5871 5872 5872 5874 5872 5872 5872 5872 5872 5872 5872 5871 5871 5870 5870 5869 5868 5867 5866 5865 5864 5863 5862 5860 5859 5857 5855 5853 5851 5849 5847 5845 5843 5841 5839 5837 5835 5833 5831 5828 5826 5824 5821 5819
5864 5864 5865 5866 5865 5865 5865 5865 5865 5864 5864 5863 5863 5863 5862 5862 5861 5860 5859 5858 5857 5855 5854 5853 5851 5850 5848 5846 5844 5842 5840 5838 5835 5833 5831 5829 5826 5824 5822 5820 5817 5815 5812 5810
5857 5857 5858 5859 5858 5858 5859 5857 5857 5857 5857 5856 5856 5856 5855 5854 5853 5852 5851 5850 5849 5848 5846 5845 5843 5842 5840 5838 5836 5834 5832 5829 5827 5825 5823 5820 5818 5816 5813 5811 5808 5806 5803 5801
5849 5850 5850 5850 5850 5851 5852 5851 5850 5849 5849 5849 5848 5848 5848 5846 5845 5844 5843 5842 5841 5840 5838 5837 5835 5834 5832 5830 5828 5826 5823 5821 5819 5816 5814 5812 5809 5806 5804 5801 5799 5797 5795 5792
5842 5843 5844 5843 5843 5844 5844 5843 5842 5842 5842 5841 5841 5840 5839 5839 5838 5837 5835 5834 5833 5831 5830 5828 5827 5825 5823 5821 5819 5817 5815 5812 5810 5807 5805 5803 5800 5797 5794 5792 5789 5787 5785 5783
5835 5837 5836 5835 5835 5835 5835 5835 5835 5834 5834 5834 5833 5832 5832 5831 5830 5828 5827 5826 5825 5823 5822 5820 5819 5817 5815 5813 5810 5808 5806 5804 5801 5799 5796 5794 5791 5788 5785 5783 5780 5777 5776 5774
5826 5827 5827 5827 5827 5827 5827 5827 5827 5827 5827 5826 5826 5825 5824 5823 5822 5821 5820 5818 5817 5815 5814 5812 5810 5808 5806 5804 5802 5799 5797 5795 5792 5789 5787 5784 5781 5779 5776 5773 5770 5768 5766 5764
5819 5819 5819 5819 5819 5819 5819 5819 5819 5819 5819 5819 5818 5818 5816 5815 5814 5813 5812 5810 5808 5807 5805 5803 5801 5800 5798 5796 5793 5791 5788 5786 5783 5780 5778 5775 5772 5769 5767 5764 5761 5758 5756 5754
5811 5811 5812 5811 5811 5811 5812 5812 5812 5812 5812 5811 5811 5810 5808 5807 5806 5805 5803 5802 5800 5798 5797 5795 5793 5791 5789 5787 5784 5782 5779 5777 5774 5771 5769 5766 5763 5760 5757 5754 5752 5749 5746 5745
5803 5803 5803 5803 5804 5804 5804 5804 5804 5804 5804 5804 5803 5802 5801 5799 5798 5797 5795 5794 5792 5790 5788 5786 5784 5782 5780 5777 5775 5772 5770 5768 5765 5763 5760 5757 5754 5751 5748 5745 5742 5740 5737 5735
5794 5795 5796 5796 5796 5796 5796 5796 5797 5797 5796 5796 5795 5794 5793 5792 5790 5789 5787 5785 5784 5782 5779 5777 5775 5773 5770 5768 5766 5764 5761 5759 5756 5753 5751 5748 5746 5743 5739 5736 5734 5731 5729 5726
5786 5787 5788 5788 5789 5789 5789 5789 5789 5789 5789 5788 5787 5786 5785 5784 5782 5781 5779 5777 5775 5773 5771 5769 5766 5764 5762 5760 5758 5755 5752 5750 5747 5744 5742 5739 5737 5734 5731 5728 5725 5722 5720 5717
5778 5779 5780 5780 5781 5781 5781 5781 5781 5781 5781 5780 5779 5778 5777 5776 5774 5773 5771 5769 5767 5765 5763 5760 5758 5756 5754 5751 5749 5746 5744 5741 5738 5735 5733 5730 5728 5725 5722 5719 5716 5713 5711 5708
5770 5771 5772 5772 5773 5773 5773 5773 5773 5773 5772 5772 5771 5770 5769 5768 5766 5765 5763 5761 5759 5757 5754 5752 5750 5748 5745 5743 5740 5737 5735 5732 5729 5726 5724 5721 5719 5716 5713 5710 5707 5705 5702 5699
5762 5763 5764 5764 5764 5765 5765 5765 5765 5765 5764 5763 5763 5762 5761 5759 5758 5756 5755 5752 5750 5748 5746 5743 5741 5739 5736 5733 5731 5728 5725 5723 5720 5718 5715 5712 5710 5707 5704 5702 5699 5696 5693 5691
5753 5754 5755 5755 5756 5756 5756 5756 5756 5756 5756 5755 5754 5753 5752 5750 5749 5748 5746 5744 5742 5739 5737 5735 5732 5729 5727 5724 5722 5719 5716 5714 5711 5709 5706 5704 5701 5699 5696 5693 5690 5687 5684 5682
5745 5746 5746 5746 5747 5748 5748 5748 5748 5747 5747 5746 5745 5744 5743 5742 5740 5739 5737 5735 5733 5730 5728 5726 5723 5721 5718 5715 5712 5710 5708 5705 5703 5700 5698 5695 5693 5690 5687 5684 5681 5679 5676 5673
5736 5737 5738 5738 5739 5739 5739 5739 5739 5739 5738 5737 5736 5735 5734 5733 5731 5730 5728 5726 5724 5722 5719 5717 5714 5712 5709 5706 5704 5701 5699 5697 5694 5692 5689 5687 5684 5681 5679 5676 5673 5670 5667 5665
5728 5729 5729 5730 5730 5730 5730 5730 5730 5730 5729 5728 5727 5726 5725 5724 5722 5721 5719 5717 5715 5713 5710 5708 5706 5703 5700 5698 5695 5693 5691 5688 5686 5684 5681 5678 5676 5673 5670 5667 5665 5662 5659 5656
5720 5720 5721 5721 5722 5722 5722 5721 5721 5721 5720 5719 5718 5717 5716 5714 5713 5712 5710 5708 5706 5704 5701 5699 5697 5694 5692 5689 5687 5685 5682 5680 5677 5675 5672 5670 5667 5665 5662 5659 5656 5654 5651 5648
5711 5712 5713 5713 5713 5713 5713 5713 5712 5712 5711 5710 5709 5708 5707 5705 5704 5702 5701 5699 5697 5695 5693 5691 5688 5686 5683 5681 5678 5676 5674 5671 5669 5666 5664 5661 5659 5656 5653 5651 5648 5645 5642 5640
5704 5704 5705 5705 5705 5704 5704 5704 5703 5703 5702 5701 5700 5699 5698 5696 5695 5693 5692 5690 5688 5686 5684 5682 5679 5677 5675 5672 5670 5668 5665 5663 5661 5658 5656 5653 5650 5647 5645 5642 5639 5636 5634 5631
5697 5697 5697 5697 5697 5696 5696 5696 5695 5694 5693 5692 5691 5690 5688 5687 5686 5684 5683 5681 5679 5677 5675 5673 5671 5668 5666 5664 5661 5659 5657 5655 5652 5650 5647 5644 5642 5639 5636 5634 5631 5628 5625 5623
5690 5690 5690 5690 5690 5689 5689 5688 5687 5686 5685 5684 5682 5681 5679 5678 5677 5675 5674 5672 5670 5668 5666 5664 5662 5660 5657 5655 5653 5651 5649 5646 5644 5641 5639 5636 5634 5631 5628 5625 5623 5620 5617 5614
Wind_Speed
22 22 22 22 22 22 22 21 21 20 20 21 21 21 20 20 21 22 22 21 21 21 21 22 21 21 22 23 23 24 24 24 25 25 25 25 25 26 26 27 28 28 28 28
23 23 23 23 23 23 23 24 24 23 23 22 23 23 23 23 24 23 23 23 23 23 23 24 24 24 25 25 26 26 26 26 26 26 26 27 28 28 29 28 29 29 29 30
23 24 24 24 24 23 24 25 25 25 24 24 24 24 24 25 25 25 24 25 24 24 24 25 25 26 26 27 28 28 28 29 29 28 28 29 29 30 30 31 31 31 31 31
24 25 25 24 25 24 25 25 25 26 26 26 25 25 25 25 25 25 26 26 26 26 26 26 26 27 27 28 29 30 30 30 30 30 30 30 30 31 31 32 32 32 32 32
25 25 25 26 25 25 25 25 25 26 25 25 25 26 26 26 26 27 27 27 27 27 27 26 27 27 28 28 29 30 31 31 31 31 31 31 31 31 31 32 32 32 33 33
26 25 25 26 26 25 25 26 25 25 25 26 26 27 27 26 27 27 28 28 28 28 28 27 27 28 28 29 30 31 31 31 32 31 31 32 31 31 32 33 33 33 33 33
26 25 26 26 25 24 25 25 25 24 25 25 26 27 27 27 27 28 28 28 29 29 29 29 29 28 29 29 30 31 31 31 32 32 31 31 32 32 32 33 33 33 33 34
26 26 27 26 25 25 25 25 25 25 25 26 26 27 27 28 28 28 28 29 29 30 29 30 30 30 29 29 30 31 31 31 31 31 32 32 32 32 33 33 33 33 34 34
27 27 27 26 26 25 25 25 25 25 25 25 25 26 27 28 28 28 29 29 29 30 30 30 30 30 30 30 31 32 32 32 31 32 33 32 32 32 33 33 33 34 34 35
27 27 27 27 26 26 25 25 25 25 24 24 25 26 27 27 28 28 28 29 30 31 31 31 31 31 31 30 30 31 31 31 31 31 31 31 32 32 32 32 33 34 34 33
27 27 27 27 27 26 26 25 24 24 24 25 25 26 26 26 27 27 28 29 30 31 31 31 30 31 30 30 30 30 30 31 31 32 32 32 32 32 31 31 32 33 32 32
27 27 26 26 26 26 26 26 25 25 25 25 25 25 26 27 28 28 29 29 30 30 30 30 30 30 31 31 31 30 30 30 31 31 31 31 31 31 31 31 31 31 31 30
27 27 27 26 26 26 26 26 26 25 25 26 26 26 26 27 28 28 28 29 29 30 30 30 30 31 31 31 31 30 30 30 31 31 30 30 30 30 30 30 29 29 29 29
27 27 26 26 26 26 26 26 26 26 26 26 27 27 27 27 28 28 28 28 29 29 30 30 30 30 30 30 31 31 31 30 30 31 30 30 31 31 31 30 29 29 29 30
28 28 27 27 26 26 26 26 26 26 27 27 27 27 28 28 28 28 28 29 29 29 29 29 29 29 29 29 30 31 31 31 31 30 30 30 30 30 30 30 29 29 30 30
27 27 27 27 27 26 26 26 26 26 27 27 27 27 27 27 28 28 28 28 29 29 29 29 29 29 29 29 30 30 30 31 31 30 30 31 31 30 30 30 29 29 29 29
27 27 27 27 27 27 27 27 27 27 27 27 27 27 27 27 28 28 29 29 29 29 29 29 29 29 30 30 30 30 30 31 31 30 30 30 30 30 30 30 30 29 29 28
28 28 28 28 29 28 28 28 27 27 27 27 27 28 28 28 28 28 28 28 29 29 30 30 29 29 30 30 30 30 30 29 29 29 29 29 29 29 29 29 29 28 28 28
28 28 29 29 29 29 28 28 28 28 28 28 28 29 29 29 29 29 29 29 29 29 29 29 29 30 30 30 30 30 29 29 29 29 29 29 29 29 29 28 29 28 28 28
29 29 29 29 28 29 29 29 29 29 29 29 28 28 29 29 29 29 30 30 30 29 29 29 29 30 30 30 29 28 28 28 28 28 29 29 29 29 29 28 28 28 28 28
28 29 29 29 29 29 29 30 30 29 29 29 28 28 28 29 29 30 30 31 30 30 30 30 31 30 30 29 29 29 28 28 28 27 28 28 28 28 28 27 27 27 27 27
27 28 28 29 29 30 30 30 29 29 29 29 29 29 29 29 29 30 30 30 30 30 30 30 30 30 29 29 28 28 28 28 28 27 27 27 27 27 26 26 27 27 27 27
26 27 27 28 28 28 28 28 28 29 29 29 29 30 30 30 30 30 30 29 29 30 29 29 29 30 29 28 28 29 29 28 28 27 27 27 27 27 26 26 27 27 27 27
25 25 26 26 27 27 28 28 28 28 29 29 29 29 30 30 30 30 29 28 29 29 29 28 28 28 28 28 28 28 28 28 27 26 27 27 27 27 27 27 27 27 27 27
23 24 24 25 25 26 27 27 28 28 28 28 28 29 29 29 29 29 28 29 29 29 28 28 28 28 29 28 29 28 28 27 27 26 26 27 27 27 27 27 27 27 27 27
22 23 24 24 25 25 25 26 26 26 26 27 27 28 28 28 28 27 27 28 28 28 28 29 29 28 29 29 28 28 28 27 27 26 26 27 28 27 27 26 27 27 27 27
20 21 21 22 22 23 24 24 24 24 24 25 26 26 26 26 26 27 27 27 27 27 27 27 28 28 28 27 27 27 27 27 27 27 27 28 27 26 26 26 27 27 27 26
Wind_Direction
251 254 259 262 263 264 264 265 267 270 272 272 274 275 278 279 280 282 282 283 284 285 287 289 292 293 293 292 292 292 292 292 292 290 289 290 289 289 289 288 286 286 287 288
256 257 259 262 263 263 264 266 268 271 273 272 271 273 275 278 280 281 281 281 281 282 283 284 287 288 290 292 291 290 290 290 290 289 289 289 288 287 286 286 286 286 286 287
261 260 261 263 263 264 265 267 269 270 273 272 272 272 273 275 278 279 279 279 278 279 281 283 284 285 287 289 290 289 288 288 289 288 287 287 286 286 285 286 285 286 286 287
261 263 264 265 265 265 265 266 267 268 270 272 273 273 272 274 277 278 279 279 278 278 280 281 282 283 284 287 288 288 288 288 288 288 288 287 286 286 285 286 286 285 285 285
261 264 267 266 266 266 267 267 268 270 271 272 271 272 272 273 275 276 277 278 279 279 279 281 281 283 285 287 287 287 286 286 287 288 288 287 287 288 287 286 286 286 285 285
259 262 266 269 269 268 269 269 269 270 272 273 272 271 271 273 275 276 277 278 278 280 281 282 283 284 285 287 287 286 286 287 288 287 287 288 288 288 287 287 286 286 287 285
260 262 266 269 270 269 268 269 270 271 272 272 272 272 274 275 276 276 278 279 280 281 284 285 285 285 286 286 287 288 287 287 288 287 288 289 289 288 287 287 286 285 286 286
259 261 264 268 269 267 268 269 268 269 270 272 272 273 275 276 277 277 279 280 281 283 286 286 286 286 286 287 289 289 288 287 287 287 288 289 288 288 288 288 286 285 286 287
259 262 266 268 269 268 268 268 268 268 270 273 275 274 275 277 278 278 280 281 282 283 284 285 285 286 287 288 290 290 289 288 287 287 289 290 290 290 290 290 289 288 286 286
260 263 265 267 267 267 267 269 270 269 270 273 275 276 275 277 278 278 279 281 282 282 283 284 285 287 288 289 291 291 290 288 287 287 289 290 291 291 292 292 290 288 287 286
261 263 265 265 266 267 268 268 268 268 270 273 276 278 278 278 279 280 281 282 283 283 284 285 286 287 288 290 290 290 289 288 290 290 292 291 291 292 293 292 291 290 287 287
259 261 262 264 265 267 267 267 269 269 270 274 277 279 281 281 281 282 282 284 284 284 284 284 285 286 287 289 289 290 290 289 291 291 292 292 292 292 293 293 292 291 290 289
259 261 262 263 265 267 268 267 268 269 271 274 277 279 282 283 282 282 282 283 285 285 284 284 285 287 287 288 289 291 290 291 292 292 292 293 294 295 295 294 292 290 290 290
259 260 262 264 266 267 267 268 269 270 272 274 277 280 282 284 284 283 283 284 285 286 286 286 287 288 288 289 291 293 293 292 292 293 293 294 295 296 296 295 295 294 293 291
259 260 261 262 264 265 266 268 270 271 272 274 276 279 281 282 282 283 283 285 286 287 287 288 289 290 290 290 292 294 295 294 294 293 293 295 297 297 297 296 296 298 297 295
258 260 262 263 263 265 268 270 271 272 274 275 276 279 281 282 283 284 285 286 287 288 289 289 289 290 291 292 293 294 296 296 295 294 294 295 296 296 296 297 298 300 300 299
257 259 261 263 265 267 268 271 272 274 276 277 279 279 281 283 284 285 286 287 287 288 288 288 289 289 290 292 294 295 296 296 296 296 296 296 297 297 297 297 298 298 299 299
256 257 259 262 265 267 269 270 272 274 276 277 279 279 280 281 283 285 286 287 287 287 288 288 289 290 291 292 294 295 296 297 297 297 297 297 298 298 298 298 297 297 297 298
256 257 259 262 264 267 269 270 272 274 276 277 279 279 280 281 282 284 285 285 287 287 287 289 291 292 293 293 293 294 296 297 298 296 296 296 296 297 298 296 296 294 295 297
257 260 262 264 266 268 269 270 272 274 275 277 278 279 280 282 282 283 283 284 286 287 288 290 293 294 294 294 295 296 297 298 298 298 297 297 297 298 297 296 296 297 296 295
259 261 263 265 267 269 270 272 272 273 276 277 278 279 280 281 283 284 283 284 286 287 288 290 292 293 292 294 296 297 297 299 299 299 298 298 297 298 298 298 299 298 298 297
260 261 263 265 267 269 270 272 272 273 276 278 279 280 281 281 282 283 284 285 286 287 289 290 292 293 293 295 296 297 297 298 298 299 299 299 298 298 299 299 300 299 298 297
261 262 264 265 267 269 270 272 273 274 275 277 279 281 282 283 282 283 283 284 286 288 290 291 292 293 294 295 295 297 296 297 297 298 298 299 299 299 299 299 299 298 297 297
263 264 266 267 268 269 271 272 273 274 275 277 279 281 282 282 282 283 285 287 289 290 290 291 293 294 295 295 296 297 296 295 295 296 297 297 297 298 299 299 299 298 298 297
265 265 266 268 270 271 272 273 273 273 275 277 279 280 281 282 284 286 287 289 290 290 290 291 293 293 293 294 294 293 293 294 293 295 296 297 298 299 299 299 299 298 298 298
266 267 267 269 272 274 274 274 275 277 278 279 281 282 283 284 286 286 288 289 290 290 290 291 293 295 295 294 292 291 292 293 294 294 295 296 297 298 298 299 299 299 297 297
268 269 270 272 274 275 275 276 279 281 282 283 285 286 286 286 287 287 289 290 290 290 291 293 294 295 295 293 292 291 291 291 292 292 293 294 295 296 296 296 297 298 299 299